sat.trackr.live / text

‹ back to catalog

HAWK-8B

NORAD 59445 · 2024-066D

PAYLOAD ACTIVE UNKNOWN

§ Identity

Operator
Country
US
Launch date
2024-04-07
Launch site
AFETR
Launch vehicle
Mass (kg)
RCS (m²)

External: N2YO · Heavens-Above · Gunter

§ Orbital elements

Epoch: 2026-09-20T09:27:58.040064Z

Period
96.04 min
Inclination
45.6095°
Eccentricity
0.0003537
Mean motion
14.99425501 rev/d
Perigee alt
566.2 km
Apogee alt
571.1 km
Semi-major
6,946.8 km
B*
3.3200e-4
RAAN
146.3687°
Arg perigee
217.2092°
Mean anomaly
142.8545°
Rev number
13,411

§ Raw data

HAWK-8B1 59445U 24066D   26263.39442176  .00003898  00000+0  33200-3 0  99982 59445  45.6095 146.3687 0003537 217.2092 142.8545 14.99425501134113

JSON: /api/v1/satellites/59445 · /tle

For live sub-satellite position, see the globe view (requires WebGL).

§ Visibility from observer

Set your observer location to see the next 7 days of passes ≥ 10°. The values pass through the URL so the page stays shareable.

No JS? Fill the form by hand. The geolocation button needs JavaScript.